| time (UTC) | temp F | wind direction | speed knots | gust knots | rain 1hr in | rain 24hr in | rain mn in | humidity % | barometer mb |
| 20260503013906 | 65 | 235 | 2.6 | 4.3 | 0.00 | 0.00 | 0.00 | 32 | 1010.7 |
| 20260503013406 | 65 | 236 | 5.2 | 6.1 | 0.00 | 0.00 | 0.00 | 31 | 1010.8 |
| 20260503012906 | 66 | 235 | 6.1 | 7.8 | 0.00 | 0.00 | 0.00 | 29 | 1010.8 |
| 20260503012336 | 66 | 247 | 6.1 | 10.4 | 0.00 | 0.00 | 0.00 | 29 | 1010.9 |
| 20260503011806 | 66 | 250 | 7.0 | 10.4 | 0.00 | 0.00 | 0.00 | 29 | 1010.8 |
| 20260503011236 | 66 | 232 | 7.0 | 10.4 | 0.00 | 0.00 | 0.00 | 28 | 1010.9 |
| 20260503010706 | 66 | 260 | 5.2 | 7.0 | 0.00 | 0.00 | 0.00 | 30 | 1010.9 |
| 20260503010206 | 66 | 229 | 8.7 | 11.3 | 0.00 | 0.00 | 0.00 | 29 | 1010.9 |
| 20260503005636 | 67 | 1 | 0.0 | 10.4 | 0.00 | 0.00 | 0.00 | 27 | 1011.0 |
| 20260503005106 | 67 | 3 | 0.0 | 0.0 | 0.00 | 0.00 | 0.00 | 27 | 1011.1 |
| 20260503004536 | 67 | 3 | 0.0 | 0.0 | 0.00 | 0.00 | 0.00 | 27 | 1011.1 |
| 20260503004006 | 67 | 2 | 0.0 | 0.0 | 0.00 | 0.00 | 0.00 | 27 | 1011.2 |
| 20260503003436 | 67 | 3 | 0.0 | 0.0 | 0.00 | 0.00 | 0.00 | 27 | 1011.3 |
| 20260503002936 | 67 | 3 | 0.0 | 0.0 | 0.00 | 0.00 | 0.00 | 27 | 1011.4 |
| 20260503002436 | 67 | 346 | 4.3 | 5.2 | 0.00 | 0.00 | 0.00 | 27 | 1011.5 |
| 20260503001936 | 67 | 242 | 5.2 | 5.2 | 0.00 | 0.00 | 0.00 | 27 | 1011.6 |
| 20260503001406 | 67 | 242 | 6.1 | 5.2 | 0.00 | 0.00 | 0.00 | 27 | 1011.7 |
| 20260503000906 | 67 | 258 | 7.8 | 10.4 | 0.00 | 0.00 | 0.00 | 28 | 1011.7 |
| 20260503000408 | 67 | 240 | 10.4 | 11.3 | 0.00 | 0.00 | 0.00 | 27 | 1011.8 |
| 20260502235836 | 67 | 246 | 7.0 | 12.2 | 0.00 | 0.00 | 0.00 | 27 | 1011.9 |
| 20260502235336 | 67 | 246 | 5.2 | 10.4 | 0.00 | 0.00 | 0.00 | 26 | 1011.9 |
| 20260502234806 | 67 | 268 | 0.9 | 2.6 | 0.00 | 0.00 | 0.00 | 26 | 1012.0 |
| 20260502234306 | 67 | 236 | 7.0 | 8.7 | 0.00 | 0.00 | 0.00 | 27 | 1012.0 |
| 20260502233806 | 67 | 233 | 4.3 | 10.4 | 0.00 | 0.00 | 0.00 | 27 | 1012.1 |
| 20260502233306 | 66 | 247 | 2.6 | 7.8 | 0.00 | 0.00 | 0.00 | 26 | 1012.2 |
| 20260502232806 | 66 | 242 | 4.3 | 7.0 | 0.00 | 0.00 | 0.00 | 27 | 1012.3 |
| 20260502232236 | 67 | 247 | 7.0 | 8.7 | 0.00 | 0.00 | 0.00 | 27 | 1012.4 |
| 20260502231736 | 67 | 233 | 6.1 | 8.7 | 0.00 | 0.00 | 0.00 | 27 | 1012.5 |
| 20260502231206 | 67 | 262 | 8.7 | 14.8 | 0.00 | 0.00 | 0.00 | 26 | 1012.6 |
| 20260502230706 | 68 | 288 | 2.6 | 6.1 | 0.00 | 0.00 | 0.00 | 26 | 1012.6 |
| 20260502230136 | 67 | 263 | 4.3 | 4.3 | 0.00 | 0.00 | 0.00 | 26 | 1012.7 |
| 20260502225636 | 66 | 299 | 6.1 | 7.8 | 0.00 | 0.00 | 0.00 | 26 | 1012.8 |
| 20260502225136 | 67 | 278 | 2.6 | 7.0 | 0.00 | 0.00 | 0.00 | 27 | 1012.9 |
| 20260502224606 | 66 | 222 | 2.6 | 4.3 | 0.00 | 0.00 | 0.00 | 26 | 1013.0 |
| 20260502224036 | 66 | 238 | 5.2 | 6.1 | 0.00 | 0.00 | 0.00 | 26 | 1013.1 |
| 20260502223506 | 66 | 255 | 8.7 | 11.3 | 0.00 | 0.00 | 0.00 | 28 | 1013.3 |
| 20260502223006 | 66 | 280 | 5.2 | 6.1 | 0.00 | 0.00 | 0.00 | 26 | 1013.3 |
| 20260502222506 | 66 | 288 | 5.2 | 10.4 | 0.00 | 0.00 | 0.00 | 26 | 1013.3 |
| 20260502222006 | 65 | 278 | 7.0 | 8.7 | 0.00 | 0.00 | 0.00 | 28 | 1013.4 |
| 20260502221507 | 65 | 265 | 7.0 | 13.9 | 0.00 | 0.00 | 0.00 | 27 | 1013.4 |
| 20260502220936 | 65 | 286 | 2.6 | 5.2 | 0.00 | 0.00 | 0.00 | 27 | 1013.5 |
| 20260502220437 | 66 | 263 | 8.7 | 12.2 | 0.00 | 0.00 | 0.00 | 28 | 1013.6 |
| 20260502215906 | 66 | 293 | 7.0 | 8.7 | 0.00 | 0.00 | 0.00 | 28 | 1013.6 |
| 20260502215407 | 65 | 285 | 8.7 | 12.2 | 0.00 | 0.00 | 0.00 | 28 | 1013.7 |
| 20260502214836 | 65 | 279 | 7.0 | 10.4 | 0.00 | 0.00 | 0.00 | 29 | 1013.7 |
| 20260502214337 | 65 | 227 | 6.1 | 7.0 | 0.00 | 0.00 | 0.00 | 28 | 1013.8 |
| 20260502213837 | 65 | 236 | 5.2 | 10.4 | 0.00 | 0.00 | 0.00 | 29 | 1013.9 |
| 20260502213307 | 65 | 235 | 5.2 | 5.2 | 0.00 | 0.00 | 0.00 | 30 | 1014.0 |
| 20260502212806 | 64 | 269 | 5.2 | 6.1 | 0.00 | 0.00 | 0.00 | 29 | 1014.1 |
| 20260502212237 | 65 | 265 | 6.1 | 13.0 | 0.00 | 0.00 | 0.00 | 30 | 1014.2 |
| 20260502211736 | 65 | 283 | 5.2 | 6.1 | 0.00 | 0.00 | 0.00 | 30 | 1014.3 |
| 20260502211237 | 65 | 274 | 7.8 | 11.3 | 0.00 | 0.00 | 0.00 | 30 | 1014.3 |
| 20260502210736 | 65 | 237 | 1.7 | 4.3 | 0.00 | 0.00 | 0.00 | 29 | 1014.3 |
| 20260502210237 | 64 | 265 | 0.0 | 1.7 | 0.00 | 0.00 | 0.00 | 30 | 1014.4 |
| 20260502205737 | 64 | 290 | 4.3 | 6.1 | 0.00 | 0.00 | 0.00 | 29 | 1014.5 |
| 20260502205207 | 64 | 281 | 7.0 | 12.2 | 0.00 | 0.00 | 0.00 | 30 | 1014.4 |
| 20260502204707 | 64 | 288 | 4.3 | 5.2 | 0.00 | 0.00 | 0.00 | 30 | 1014.6 |
| 20260502204207 | 64 | 249 | 7.0 | 8.7 | 0.00 | 0.00 | 0.00 | 31 | 1014.7 |
| 20260502203707 | 64 | 13 | 5.2 | 7.0 | 0.00 | 0.00 | 0.00 | 30 | 1014.7 |
| 20260502203137 | 63 | 25 | 4.3 | 8.7 | 0.00 | 0.00 | 0.00 | 32 | 1014.8 |
| 20260502202607 | 63 | 305 | 4.3 | 5.2 | 0.00 | 0.00 | 0.00 | 30 | 1014.9 |
| 20260502202107 | 63 | 262 | 5.2 | 7.8 | 0.00 | 0.00 | 0.00 | 31 | 1015.1 |
| 20260502201607 | 63 | 342 | 6.1 | 8.7 | 0.00 | 0.00 | 0.00 | 31 | 1015.1 |
| 20260502201037 | 62 | 235 | 1.7 | 2.6 | 0.00 | 0.00 | 0.00 | 31 | 1015.1 |
| 20260502200537 | 63 | 246 | 7.0 | 11.3 | 0.00 | 0.00 | 0.00 | 31 | 1015.2 |
| 20260502200007 | 62 | 247 | 10.4 | 13.9 | 0.00 | 0.00 | 0.00 | 33 | 1015.2 |
| 20260502195507 | 63 | 290 | 2.6 | 5.2 | 0.00 | 0.00 | 0.00 | 32 | 1015.4 |
| 20260502194937 | 62 | 273 | 6.1 | 6.1 | 0.00 | 0.00 | 0.00 | 32 | 1015.4 |
| 20260502194437 | 61 | 288 | 6.1 | 12.2 | 0.00 | 0.00 | 0.00 | 33 | 1015.6 |
| 20260502193907 | 61 | 287 | 2.6 | 13.9 | 0.00 | 0.00 | 0.00 | 31 | 1015.6 |
| 20260502193407 | 61 | 286 | 4.3 | 2.6 | 0.00 | 0.00 | 0.00 | 32 | 1015.7 |
| 20260502192907 | 61 | 267 | 7.8 | 10.4 | 0.00 | 0.00 | 0.00 | 33 | 1015.8 |
| 20260502192337 | 62 | 293 | 8.7 | 10.4 | 0.00 | 0.00 | 0.00 | 33 | 1015.8 |
| 20260502191837 | 61 | 259 | 7.0 | 8.7 | 0.00 | 0.00 | 0.00 | 33 | 1015.9 |
| 20260502191307 | 61 | 273 | 10.4 | 11.3 | 0.00 | 0.00 | 0.00 | 33 | 1016.0 |
| 20260502190737 | 61 | 322 | 7.0 | 10.4 | 0.00 | 0.00 | 0.00 | 33 | 1015.9 |
| 20260502190237 | 61 | 1 | 7.8 | 10.4 | 0.00 | 0.00 | 0.00 | 32 | 1016.0 |
| 20260502185707 | 62 | 10 | 5.2 | 7.0 | 0.00 | 0.00 | 0.00 | 31 | 1016.1 |
| 20260502185207 | 61 | 356 | 7.8 | 10.4 | 0.00 | 0.00 | 0.00 | 31 | 1016.1 |
| 20260502184707 | 61 | 25 | 5.2 | 7.8 | 0.00 | 0.00 | 0.00 | 31 | 1016.1 |
| 20260502184137 | 61 | 334 | 5.2 | 8.7 | 0.00 | 0.00 | 0.00 | 32 | 1016.2 |
| 20260502183637 | 61 | 8 | 6.1 | 11.3 | 0.00 | 0.00 | 0.00 | 32 | 1016.3 |
| 20260502183107 | 60 | 357 | 5.2 | 8.7 | 0.00 | 0.00 | 0.00 | 31 | 1016.4 |
| 20260502182607 | 61 | 318 | 6.1 | 10.4 | 0.00 | 0.00 | 0.00 | 31 | 1016.4 |
| 20260502182107 | 61 | 341 | 2.6 | 4.3 | 0.00 | 0.00 | 0.00 | 31 | 1016.4 |
| 20260502181537 | 60 | 351 | 6.1 | 10.4 | 0.00 | 0.00 | 0.00 | 31 | 1016.5 |
| 20260502181007 | 61 | 302 | 7.0 | 8.7 | 0.00 | 0.00 | 0.00 | 33 | 1016.5 |
| 20260502180507 | 60 | 23 | 2.6 | 5.2 | 0.00 | 0.00 | 0.00 | 31 | 1016.5 |
| 20260502170107 | 58 | 290 | 1.7 | 2.6 | 0.00 | 0.00 | 0.00 | 39 | 1017.1 |
| 20260502163937 | 57 | 319 | 1.7 | 6.1 | 0.00 | 0.00 | 0.00 | 43 | 1017.3 |
| 20260502163437 | 57 | 346 | 2.6 | 2.6 | 0.00 | 0.00 | 0.00 | 43 | 1017.3 |
| 20260502162907 | 57 | 347 | 2.6 | 4.3 | 0.00 | 0.00 | 0.00 | 43 | 1017.3 |
| 20260502162407 | 57 | 348 | 1.7 | 2.6 | 0.00 | 0.00 | 0.00 | 43 | 1017.3 |
| 20260502161837 | 57 | 2 | 2.6 | 6.1 | 0.00 | 0.00 | 0.00 | 44 | 1017.3 |
| 20260502161307 | 56 | 324 | 1.7 | 2.6 | 0.00 | 0.00 | 0.00 | 45 | 1017.3 |
| 20260502160807 | 56 | 340 | 4.3 | 5.2 | 0.00 | 0.00 | 0.00 | 45 | 1017.3 |
| 20260502160237 | 56 | 359 | 4.3 | 5.2 | 0.00 | 0.00 | 0.00 | 46 | 1017.3 |
| 20260502152007 | 53 | 336 | 4.3 | 7.8 | 0.00 | 0.00 | 0.00 | 56 | 1017.5 |
| 20260502151437 | 53 | 333 | 2.6 | 5.2 | 0.00 | 0.00 | 0.00 | 56 | 1017.5 |
| 20260502150907 | 52 | 318 | 2.6 | 7.0 | 0.00 | 0.00 | 0.00 | 59 | 1017.4 |
| 20260502150407 | 52 | 294 | 4.3 | 7.0 | 0.00 | 0.00 | 0.00 | 61 | 1017.4 |
| 20260502130407 | 40 | 281 | 7.0 | 8.7 | 0.00 | 0.00 | 0.00 | 83 | 1017.1 |
| 20260502123707 | 39 | 276 | 6.1 | 7.8 | 0.00 | 0.00 | 0.00 | 84 | 1016.9 |
| 20260502123137 | 39 | 274 | 7.0 | 7.8 | 0.00 | 0.00 | 0.00 | 84 | 1016.9 |
| 20260502122637 | 39 | 274 | 6.1 | 7.8 | 0.00 | 0.00 | 0.00 | 84 | 1016.9 |
| 20260502122107 | 39 | 279 | 6.1 | 7.8 | 0.00 | 0.00 | 0.00 | 85 | 1016.9 |
| 20260502121607 | 39 | 277 | 6.1 | 7.0 | 0.00 | 0.00 | 0.00 | 84 | 1016.8 |
| 20260502121107 | 39 | 274 | 7.0 | 7.8 | 0.00 | 0.00 | 0.00 | 85 | 1016.7 |
| 20260502120607 | 39 | 275 | 7.0 | 8.7 | 0.00 | 0.00 | 0.00 | 85 | 1016.7 |
| 20260502120107 | 38 | 278 | 6.1 | 7.0 | 0.00 | 0.00 | 0.00 | 85 | 1016.7 |
| 20260502115607 | 38 | 276 | 7.0 | 7.8 | 0.00 | 0.00 | 0.00 | 85 | 1016.7 |
| 20260502115037 | 38 | 274 | 6.1 | 7.8 | 0.00 | 0.00 | 0.00 | 85 | 1016.6 |
| 20260502114507 | 38 | 276 | 6.1 | 7.0 | 0.00 | 0.00 | 0.00 | 84 | 1016.6 |
| 20260502114007 | 39 | 275 | 2.6 | 2.6 | 0.00 | 0.00 | 0.00 | 84 | 1016.5 |
| 20260502113507 | 39 | 275 | 6.1 | 6.1 | 0.00 | 0.00 | 0.00 | 84 | 1016.6 |
| 20260502112937 | 39 | 277 | 6.1 | 7.0 | 0.00 | 0.00 | 0.00 | 84 | 1016.5 |
| 20260502112437 | 39 | 279 | 6.1 | 7.0 | 0.00 | 0.00 | 0.00 | 84 | 1016.5 |
| 20260502111907 | 39 | 274 | 6.1 | 7.0 | 0.00 | 0.00 | 0.00 | 84 | 1016.6 |
| 20260502111407 | 39 | 272 | 6.1 | 7.0 | 0.00 | 0.00 | 0.00 | 83 | 1016.6 |
| 20260502110837 | 39 | 273 | 6.1 | 6.1 | 0.00 | 0.00 | 0.00 | 82 | 1016.5 |
| 20260502110337 | 40 | 280 | 5.2 | 6.1 | 0.00 | 0.00 | 0.00 | 82 | 1016.5 |
| 20260502105837 | 40 | 284 | 4.3 | 6.1 | 0.00 | 0.00 | 0.00 | 82 | 1016.4 |
| 20260502105307 | 40 | 289 | 4.3 | 6.1 | 0.00 | 0.00 | 0.00 | 82 | 1016.4 |
| 20260502104807 | 40 | 283 | 5.2 | 6.1 | 0.00 | 0.00 | 0.00 | 82 | 1016.4 |
| 20260502104237 | 41 | 284 | 5.2 | 7.0 | 0.00 | 0.00 | 0.00 | 82 | 1016.3 |
| 20260502103737 | 41 | 283 | 5.2 | 6.1 | 0.00 | 0.00 | 0.00 | 82 | 1016.3 |
| 20260502103207 | 41 | 284 | 5.2 | 6.1 | 0.00 | 0.00 | 0.00 | 82 | 1016.2 |
| 20260502102637 | 41 | 282 | 6.1 | 7.0 | 0.00 | 0.00 | 0.00 | 82 | 1016.1 |
| 20260502102137 | 41 | 281 | 7.0 | 7.8 | 0.00 | 0.00 | 0.00 | 82 | 1016.1 |
| 20260502101607 | 42 | 276 | 6.1 | 6.1 | 0.00 | 0.00 | 0.00 | 81 | 1016.0 |
| 20260502101037 | 42 | 274 | 5.2 | 6.1 | 0.00 | 0.00 | 0.00 | 81 | 1016.0 |
| 20260502100537 | 42 | 281 | 6.1 | 7.0 | 0.00 | 0.00 | 0.00 | 81 | 1016.1 |
| 20260502091237 | 44 | 293 | 6.1 | 7.8 | 0.00 | 0.00 | 0.00 | 78 | 1015.5 |
| 20260502090707 | 44 | 297 | 4.3 | 6.1 | 0.00 | 0.00 | 0.00 | 78 | 1015.5 |
| 20260502090137 | 44 | 293 | 4.3 | 7.0 | 0.00 | 0.00 | 0.00 | 78 | 1015.4 |
| 20260502071107 | 45 | 276 | 6.1 | 7.8 | 0.00 | 0.00 | 0.00 | 77 | 1014.8 |
| 20260502070607 | 45 | 278 | 5.2 | 7.0 | 0.00 | 0.00 | 0.00 | 77 | 1014.8 |
| 20260502070107 | 45 | 274 | 5.2 | 6.1 | 0.00 | 0.00 | 0.00 | 76 | 1014.8 |
| 20260502065537 | 45 | 278 | 5.2 | 6.1 | 0.00 | 0.00 | 0.00 | 75 | 1014.8 |
| 20260502065007 | 45 | 276 | 5.2 | 7.8 | 0.00 | 0.00 | 0.00 | 74 | 1014.8 |
| 20260502064437 | 46 | 280 | 4.3 | 5.2 | 0.00 | 0.00 | 0.00 | 73 | 1014.7 |
| 20260502063907 | 46 | 283 | 4.3 | 5.2 | 0.00 | 0.00 | 0.00 | 72 | 1014.8 |
| 20260502063337 | 47 | 287 | 7.0 | 7.8 | 0.00 | 0.00 | 0.00 | 71 | 1014.7 |
| 20260502062837 | 47 | 295 | 6.1 | 7.0 | 0.00 | 0.00 | 0.00 | 71 | 1014.6 |
| 20260502062307 | 47 | 289 | 5.2 | 6.1 | 0.00 | 0.00 | 0.00 | 70 | 1014.6 |
| 20260502061807 | 48 | 281 | 7.8 | 8.7 | 0.00 | 0.00 | 0.00 | 69 | 1014.6 |
| 20260502061307 | 48 | 291 | 6.1 | 7.0 | 0.00 | 0.00 | 0.00 | 71 | 1014.6 |
| 20260502060737 | 49 | 285 | 6.1 | 7.8 | 0.00 | 0.00 | 0.00 | 67 | 1014.6 |
| 20260502060207 | 50 | 303 | 2.6 | 2.6 | 0.00 | 0.00 | 0.00 | 66 | 1014.5 |
| 20260502055707 | 50 | 325 | 1.7 | 2.6 | 0.00 | 0.00 | 0.00 | 67 | 1014.4 |
| 20260502055207 | 51 | 317 | 1.7 | 2.6 | 0.00 | 0.00 | 0.00 | 68 | 1014.5 |
| 20260502054637 | 51 | 342 | 1.7 | 2.6 | 0.00 | 0.00 | 0.00 | 66 | 1014.3 |
| 20260502054107 | 51 | 349 | 4.3 | 5.2 | 0.00 | 0.00 | 0.00 | 67 | 1014.4 |
| 20260502053607 | 51 | 5 | 4.3 | 4.3 | 0.00 | 0.00 | 0.00 | 66 | 1014.4 |
| 20260502053037 | 52 | 0 | 4.3 | 4.3 | 0.00 | 0.00 | 0.00 | 66 | 1014.4 |
| 20260502052507 | 52 | 0 | 4.3 | 4.3 | 0.00 | 0.00 | 0.00 | 66 | 1014.3 |
| 20260502052007 | 52 | 358 | 4.3 | 4.3 | 0.00 | 0.00 | 0.00 | 66 | 1014.5 |
| 20260502051437 | 52 | 333 | 4.3 | 4.3 | 0.00 | 0.00 | 0.00 | 65 | 1014.6 |
| 20260502050907 | 53 | 332 | 5.2 | 5.2 | 0.00 | 0.00 | 0.00 | 64 | 1014.5 |
| 20260502050407 | 52 | 339 | 5.2 | 7.0 | 0.00 | 0.00 | 0.00 | 66 | 1014.6 |
| 20260502045837 | 52 | 323 | 2.6 | 2.6 | 0.00 | 0.00 | 0.00 | 65 | 1014.5 |
| 20260502045307 | 53 | 331 | 4.3 | 4.3 | 0.00 | 0.00 | 0.00 | 64 | 1014.6 |
| 20260502044737 | 53 | 350 | 4.3 | 5.2 | 0.00 | 0.00 | 0.00 | 63 | 1014.5 |
| 20260502044237 | 53 | 336 | 2.6 | 2.6 | 0.00 | 0.00 | 0.00 | 63 | 1014.4 |
| 20260502043707 | 53 | 322 | 2.6 | 2.6 | 0.00 | 0.00 | 0.00 | 63 | 1014.4 |
| 20260502043137 | 53 | 290 | 2.6 | 2.6 | 0.00 | 0.00 | 0.00 | 64 | 1014.5 |
| 20260502042607 | 53 | 282 | 4.3 | 6.1 | 0.00 | 0.00 | 0.00 | 64 | 1014.5 |
| 20260502042037 | 54 | 302 | 1.7 | 2.6 | 0.00 | 0.00 | 0.00 | 63 | 1014.4 |
| 20260502041507 | 54 | 318 | 1.7 | 2.6 | 0.00 | 0.00 | 0.00 | 63 | 1014.4 |
| 20260502040937 | 53 | 331 | 1.7 | 2.6 | 0.00 | 0.00 | 0.00 | 63 | 1014.3 |
| 20260502040407 | 54 | 327 | 1.7 | 2.6 | 0.00 | 0.00 | 0.00 | 63 | 1014.4 |
| 20260502035837 | 53 | 338 | 2.6 | 4.3 | 0.00 | 0.00 | 0.00 | 64 | 1014.4 |
| 20260502035307 | 53 | 338 | 4.3 | 5.2 | 0.00 | 0.00 | 0.00 | 64 | 1014.4 |
| 20260502034737 | 54 | 317 | 1.7 | 2.6 | 0.00 | 0.00 | 0.00 | 65 | 1014.3 |
| 20260502034207 | 54 | 316 | 2.6 | 5.2 | 0.00 | 0.00 | 0.00 | 64 | 1014.3 |
| 20260502033637 | 54 | 347 | 5.2 | 5.2 | 0.00 | 0.00 | 0.00 | 62 | 1014.1 |
| 20260502033107 | 54 | 4 | 5.2 | 6.1 | 0.00 | 0.00 | 0.00 | 62 | 1013.9 |
| 20260502032537 | 54 | 2 | 4.3 | 6.1 | 0.00 | 0.00 | 0.00 | 61 | 1013.7 |
| 20260502032007 | 54 | 0 | 6.1 | 7.8 | 0.00 | 0.00 | 0.00 | 61 | 1013.6 |
| 20260502031437 | 55 | 6 | 7.0 | 10.4 | 0.00 | 0.00 | 0.00 | 60 | 1013.5 |
| 20260502030907 | 55 | 359 | 8.7 | 10.4 | 0.00 | 0.00 | 0.00 | 59 | 1013.5 |
| 20260502030337 | 56 | 8 | 10.4 | 14.8 | 0.00 | 0.00 | 0.00 | 55 | 1013.4 |
| 20260502025807 | 57 | 15 | 11.3 | 13.0 | 0.00 | 0.00 | 0.00 | 55 | 1013.2 |
| 20260502025237 | 58 | 5 | 5.2 | 5.2 | 0.00 | 0.00 | 0.00 | 51 | 1013.0 |
| 20260502024707 | 58 | 5 | 6.1 | 7.8 | 0.00 | 0.00 | 0.00 | 50 | 1012.8 |
| 20260502024137 | 58 | 18 | 6.1 | 7.8 | 0.00 | 0.00 | 0.00 | 49 | 1012.8 |
| 20260502023607 | 59 | 15 | 7.8 | 8.7 | 0.00 | 0.00 | 0.00 | 48 | 1012.7 |
| 20260502023037 | 59 | 10 | 7.0 | 10.4 | 0.00 | 0.00 | 0.00 | 48 | 1012.6 |
| 20260502022507 | 59 | 19 | 5.2 | 7.0 | 0.00 | 0.00 | 0.00 | 48 | 1012.5 |
| 20260502021937 | 59 | 21 | 6.1 | 7.0 | 0.00 | 0.00 | 0.00 | 47 | 1012.5 |
| 20260502021407 | 60 | 30 | 5.2 | 7.0 | 0.00 | 0.00 | 0.00 | 47 | 1012.4 |
| 20260502020837 | 60 | 24 | 6.1 | 7.0 | 0.00 | 0.00 | 0.00 | 46 | 1012.3 |
| 20260502020307 | 60 | 23 | 6.1 | 8.7 | 0.00 | 0.00 | 0.00 | 46 | 1012.1 |
| 20260502015807 | 60 | 21 | 7.0 | 8.7 | 0.00 | 0.00 | 0.00 | 46 | 1012.1 |
| 20260502015237 | 60 | 30 | 6.1 | 10.4 | 0.00 | 0.00 | 0.00 | 45 | 1011.9 |
| 20260502014707 | 61 | 28 | 7.0 | 10.4 | 0.00 | 0.00 | 0.00 | 44 | 1011.9 |
| 20260502014137 | 61 | 26 | 7.8 | 10.4 | 0.00 | 0.00 | 0.00 | 44 | 1011.8 |